{"data":{"norad_id":61193,"epoch":"2026-05-25T04:21:08.576064Z","epoch_age_seconds":55416,"freshness":"FRESH","line1":"1 61193U 24169E   26145.18134926  .00003447  00000+0  22332-3 0  9996","line2":"2 61193  97.5568 235.1920 0013404  16.1340 344.0312 15.08726294 92362","mean_motion":15.08726294,"eccentricity":0.0013404,"inclination_deg":97.5568,"raan_deg":235.192,"arg_perigee_deg":16.134,"mean_anomaly_deg":344.0312,"bstar":0.00022332,"rev_number":9236,"period_min":95.44474738239,"perigee_km":530.81777178145,"apogee_km":549.3641573088,"semimajor_km":6918.2279645451,"source":"CELESTRAK","updated_at":"2026-05-25T13:38:02.312695Z"}}